DO5DHA-11 Weather Reports


time (UTC)temp
C
wind
direction
speed
KPH
gust
KPH
rain 1hr
cm
rain 24hr
cm
rain mn
cm
humidity
%
barometer
mb
20260507122406 13 180 0.0 0.0 0.00 0.00 0.00 69 1013.9
20260507121906 13 180 0.0 0.0 0.00 0.00 0.00 70 1013.9
20260507121406 13 202 0.0 0.0 0.00 0.00 0.00 71 1013.7
20260507120906 13 202 0.0 0.0 0.00 0.00 0.00 71 1013.9
20260507120406 13 180 0.0 0.0 0.00 0.00 0.00 72 1013.7
20260507115906 13 202 0.0 0.0 0.00 0.00 0.00 72 1013.7
20260507115406 13 225 0.0 0.0 0.00 0.00 0.00 72 1014.0
20260507114906 12 225 0.0 0.0 0.00 0.00 0.00 73 1013.7
20260507114406 12 225 0.0 0.0 0.13 0.00 0.00 73 1013.9
20260507113906 12 202 0.0 0.0 0.00 0.00 0.00 73 1013.9
20260507113406 12 180 0.0 0.0 0.00 0.00 0.00 73 1013.7
20260507112906 12 225 0.0 0.0 0.00 0.00 0.00 74 1013.7
20260507112406 12 225 0.0 0.0 0.00 0.00 0.00 73 1013.7
20260507111906 12 225 0.0 0.0 0.00 0.00 0.00 73 1013.7
20260507111406 12 202 0.0 0.0 0.00 0.00 0.00 73 1013.7
20260507110906 12 225 0.0 0.0 0.00 0.00 0.00 73 1013.7
20260507110406 12 225 0.0 0.0 0.00 0.00 0.00 73 1013.7
20260507105906 12 225 0.0 0.0 0.00 0.00 0.00 73 1013.7
20260507105406 12 225 0.0 0.0 0.00 0.00 0.00 74 1013.7
20260507104906 12 225 0.0 0.0 0.00 0.00 0.00 74 1013.5
20260507104406 12 225 0.0 0.0 0.00 0.00 0.00 74 1013.5
20260507103906 12 225 0.0 0.0 0.00 0.00 0.00 75 1013.7
20260507103406 12 225 0.0 0.0 0.00 0.00 0.00 75 1013.7
20260507102906 12 225 0.0 0.0 0.00 0.00 0.00 75 1013.7
20260507102406 12 225 0.0 0.0 0.00 0.00 0.00 75 1013.9
20260507101906 12 225 0.0 0.0 0.00 0.00 0.00 75 1013.7
20260507101406 12 225 0.0 0.0 0.00 0.00 0.00 75 1013.5
20260507100906 12 202 0.0 0.0 0.00 0.00 0.00 75 1013.5
20260507100406 12 180 0.0 0.0 0.00 0.00 0.00 76 1013.5
20260507095906 12 180 0.0 0.0 0.00 0.00 0.00 75 1013.5
20260507095406 12 180 0.0 0.0 0.00 0.00 0.00 75 1013.7
20260507094906 12 180 0.0 0.0 0.00 0.00 0.00 76 1013.5
20260507094406 11 180 0.0 0.0 0.00 0.00 0.00 76 1013.5
20260507093906 11 180 0.0 0.0 0.00 0.00 0.00 76 1013.4
20260507093406 11 180 0.0 0.0 0.00 0.00 0.00 76 1013.5
20260507092906 11 180 0.0 0.0 0.00 0.00 0.00 77 1013.5
20260507092406 11 180 0.0 0.0 0.00 0.00 0.00 77 1013.5
20260507091906 11 202 8.0 0.0 0.00 0.00 0.00 78 1013.4
20260507091406 11 180 0.0 0.0 0.00 0.00 0.00 78 1013.2
20260507090906 11 180 0.0 0.0 0.00 0.00 0.00 78 1013.2
20260507090406 11 180 0.0 0.0 0.00 0.00 0.00 78 1013.2
20260507085906 11 180 0.0 0.0 0.00 0.00 0.00 78 1013.0
20260507085406 11 180 0.0 0.0 0.00 0.00 0.00 78 1013.0
20260507084906 11 180 0.0 0.0 0.00 0.00 0.00 78 1013.0
20260507084406 11 180 0.0 0.0 0.00 0.00 0.00 78 1013.0
20260507083906 11 180 0.0 0.0 0.00 0.00 0.00 78 1013.0
20260507083406 11 202 0.0 0.0 0.00 0.00 0.00 78 1013.0
20260507082906 11 202 0.0 0.0 0.00 0.00 0.00 78 1013.0
20260507082406 11 202 0.0 0.0 0.00 0.00 0.00 78 1013.0
20260507081906 11 202 0.0 0.0 0.00 0.00 0.00 78 1013.0
20260507081406 11 202 0.0 0.0 0.00 0.00 0.00 78 1013.0
20260507080906 11 202 0.0 0.0 0.00 0.00 0.00 78 1013.0
20260507080406 11 202 0.0 0.0 0.00 0.00 0.00 78 1012.7
20260507075906 11 202 0.0 0.0 0.00 0.00 0.00 78 1012.7
20260507075406 11 202 0.0 0.0 0.00 0.00 0.00 79 1012.7
20260507074906 11 180 0.0 0.0 0.00 0.00 0.00 79 1012.7
20260507074406 11 180 0.0 0.0 0.00 0.00 0.00 79 1012.7
20260507073906 11 180 0.0 0.0 0.00 0.00 0.00 79 1012.7
20260507073406 11 180 0.0 0.0 0.00 0.00 0.00 79 1012.7
20260507072906 11 180 0.0 0.0 0.00 0.00 0.00 79 1012.7
20260507072406 10 180 0.0 0.0 0.00 0.00 0.00 78 1012.7
20260507071906 10 180 0.0 0.0 0.00 0.00 0.00 78 1012.5
20260507071406 11 180 0.0 0.0 0.00 0.00 0.00 78 1012.4
20260507070906 10 180 0.0 0.0 0.00 0.00 0.00 78 1012.4
20260507070406 10 180 0.0 0.0 0.00 0.00 0.00 79 1012.4
20260507065906 10 180 0.0 0.0 0.00 0.00 0.00 79 1012.4
20260507065406 10 180 0.0 0.0 0.00 0.00 0.00 79 1012.2
20260507064906 10 180 0.0 0.0 0.00 0.00 0.00 79 1012.2
20260507064406 10 180 0.0 0.0 0.00 0.00 0.00 79 1012.2
20260507064000 10 180 0.0 0.0 0.00 0.00 0.00 79 1012.4
20260507063406 10 180 0.0 0.0 0.00 0.00 0.00 79 1012.2
20260507062906 10 180 0.0 0.0 0.00 0.00 0.00 79 1012.2
20260507062406 10 180 0.0 0.0 0.00 0.00 0.00 79 1012.2
20260507061906 10 180 0.0 0.0 0.00 0.00 0.00 79 1012.0
20260507061406 10 180 0.0 0.0 0.00 0.00 0.00 79 1012.2
20260507060906 10 180 0.0 0.0 0.00 0.00 0.00 79 1011.9
20260507060406 10 180 0.0 0.0 0.00 0.00 0.00 79 1012.0
20260507055906 10 180 0.0 0.0 0.00 0.00 0.00 79 1012.0
20260507055406 10 157 0.0 0.0 0.00 0.00 0.00 79 1012.0
20260507054906 10 157 0.0 0.0 0.00 0.00 0.00 79 1011.9
20260507054406 10 157 0.0 0.0 0.00 0.00 0.00 79 1011.9
20260507053906 10 157 0.0 0.0 0.00 0.00 0.00 79 1011.7
20260507053406 10 157 0.0 0.0 0.00 0.00 0.00 79 1011.7
20260507052906 10 157 0.0 0.0 0.00 0.00 0.00 80 1011.5
20260507052406 10 135 0.0 0.0 0.00 0.00 0.00 80 1011.7
20260507051906 10 135 0.0 0.0 0.00 0.00 0.00 80 1011.7
20260507051406 10 135 0.0 0.0 0.00 0.00 0.00 80 1011.5
20260507050906 10 0 74.0 0.0 0.00 0.00 0.00 80 1011.5
20260507050406 10 135 0.0 0.0 0.00 0.00 0.00 80 1011.5
20260507045906 10 135 0.0 0.0 0.00 0.00 0.00 80 1011.4
20260507045406 10 135 0.0 0.0 0.00 0.00 0.00 80 1011.2
20260507044906 10 135 0.0 0.0 0.00 0.00 0.00 79 1011.2
20260507044406 10 135 0.0 0.0 0.00 0.00 0.00 80 1011.0
20260507043906 10 135 0.0 0.0 0.00 0.00 0.00 80 1011.0
20260507043406 10 135 0.0 0.0 0.00 0.00 0.00 79 1011.0
20260507042906 10 135 0.0 0.0 0.00 0.00 0.00 79 1010.9
20260507042406 10 135 0.0 0.0 0.00 0.00 0.00 79 1010.7
20260507041906 10 135 0.0 0.0 0.00 0.00 0.00 79 1010.9
20260507041406 10 135 0.0 0.0 0.00 0.00 0.00 79 1010.7
20260507040906 10 135 0.0 0.0 0.00 0.00 0.00 79 1010.7
20260507040406 10 135 0.0 0.0 0.00 0.00 0.00 79 1010.7
20260507035906 10 135 0.0 0.0 0.00 0.00 0.00 79 1010.5
20260507035406 10 135 0.0 0.0 0.00 0.00 0.00 79 1010.5
20260507034906 10 135 0.0 0.0 0.00 0.00 0.00 79 1010.5
20260507034406 10 112 0.0 0.0 0.00 0.00 0.00 79 1010.4
20260507033906 10 112 0.0 0.0 0.00 0.00 0.00 79 1010.4
20260507033406 10 135 0.0 0.0 0.00 0.00 0.00 79 1010.5
20260507032905 10 135 0.0 0.0 0.00 0.00 0.00 79 1010.5
20260507032406 10 135 0.0 0.0 0.00 0.00 0.00 79 1010.5
20260507031906 10 135 0.0 0.0 0.00 0.00 0.00 79 1010.5
20260507031406 10 135 0.0 0.0 0.00 0.00 0.00 78 1010.5
20260507030906 10 135 0.0 0.0 0.00 0.00 0.00 78 1010.4
20260507030406 10 135 0.0 0.0 0.00 0.00 0.00 78 1010.2
20260507025905 10 135 0.0 0.0 0.00 0.00 0.00 78 1010.2
20260507025406 10 180 0.0 0.0 0.00 0.00 0.00 78 1010.2
20260507024906 10 180 0.0 0.0 0.00 0.00 0.00 78 1010.2
20260507024406 10 180 0.0 0.0 0.00 0.00 0.00 78 1010.4
20260507023906 10 180 0.0 0.0 0.00 0.00 0.00 78 1010.2
20260507023406 10 180 0.0 0.0 0.00 0.00 0.00 78 1010.2
20260507022906 10 180 0.0 0.0 0.00 0.00 0.00 78 1010.0
20260507022406 10 180 0.0 0.0 0.00 0.00 0.00 78 1010.0
20260507021906 10 180 0.0 0.0 0.00 0.00 0.00 78 1010.0
20260507021406 10 180 0.0 0.0 0.00 0.00 0.00 78 1009.9
20260507020906 11 180 0.0 0.0 0.00 0.00 0.00 78 1010.0
20260507020405 11 180 0.0 0.0 0.00 0.00 0.00 78 1009.9
20260507015906 11 180 0.0 0.0 0.00 0.00 0.00 78 1009.9
20260507015406 11 180 0.0 0.0 0.00 0.00 0.00 78 1009.7
20260507014906 11 180 0.0 0.0 0.00 0.00 0.00 78 1009.7
20260507014405 11 180 0.0 0.0 0.00 0.00 0.00 78 1009.5
20260507013905 11 202 0.0 0.0 0.00 0.00 0.00 78 1009.5
20260507013406 11 202 0.0 0.0 0.00 0.00 0.00 78 1009.7
20260507012906 11 202 0.0 0.0 0.00 0.00 0.00 78 1009.5
20260507012406 11 202 0.0 0.0 0.00 0.00 0.00 79 1009.4
20260507011906 11 202 0.0 0.0 0.00 0.00 0.00 79 1009.4
20260507011405 11 202 0.0 0.0 0.00 0.00 0.00 78 1009.4
20260507010906 11 202 0.0 0.0 0.00 0.00 0.00 78 1009.2
20260507010405 11 180 0.0 0.0 0.00 0.00 0.00 78 1009.2
20260507005905 11 180 0.0 0.0 0.00 0.00 0.00 78 1009.2
20260507005406 11 180 0.0 0.0 0.00 0.00 0.00 78 1009.4
20260507004905 11 180 0.0 0.0 0.00 0.00 0.00 78 1009.2
20260507004406 11 180 0.0 0.0 0.00 0.00 0.00 78 1009.2
20260507003905 11 180 0.0 0.0 0.00 0.00 0.00 78 1009.0
20260507003405 11 180 0.0 0.0 0.00 0.00 0.00 78 1009.0
20260507002905 11 180 0.0 0.0 0.00 0.00 0.00 78 1009.0
20260507002405 11 180 0.0 0.0 0.00 0.00 0.00 78 1009.0
20260507001905 11 180 0.0 0.0 0.00 0.00 0.00 78 1009.0
20260507001405 11 202 0.0 0.0 0.00 0.00 0.00 78 1009.0
20260507000905 12 202 0.0 0.0 0.00 0.00 0.00 78 1009.0
20260507000406 12 225 0.0 0.0 0.00 0.00 0.00 78 1008.9
20260506235905 12 225 0.0 0.0 0.00 0.00 0.00 78 1008.9
20260506235406 12 180 0.0 0.0 0.00 0.00 0.00 78 1008.7
20260506234905 12 180 0.0 0.0 0.00 0.00 0.00 78 1008.9
20260506234405 12 180 0.0 0.0 0.00 0.00 0.00 78 1008.9
20260506233905 12 180 0.0 0.0 0.00 0.00 0.00 78 1008.7
20260506233405 12 180 0.0 0.0 0.00 0.00 0.00 78 1008.7
20260506232905 12 180 0.0 0.0 0.00 0.00 0.00 78 1008.7
20260506232405 12 180 0.0 0.0 0.00 0.00 0.00 78 1008.7
20260506231905 12 180 0.0 0.0 0.00 0.00 0.00 78 1008.7
20260506231405 12 180 0.0 0.0 0.00 0.00 0.00 78 1008.5
20260506230905 12 180 0.0 0.0 0.00 0.00 0.00 78 1008.7
20260506230405 12 180 0.0 0.0 0.00 0.00 0.00 78 1008.7
20260506225905 12 180 0.0 0.0 0.00 0.00 0.00 78 1008.7
20260506225405 12 180 0.0 0.0 0.00 0.00 0.00 78 1008.5
20260506224905 12 180 0.0 0.0 0.00 0.00 0.00 77 1008.5
20260506224405 12 180 0.0 0.0 0.00 0.00 0.00 77 1008.5
20260506223905 12 180 0.0 0.0 0.00 0.00 0.00 77 1008.5
20260506223405 12 180 0.0 0.0 0.00 0.00 0.00 77 1008.5
20260506222905 12 180 0.0 0.0 0.00 0.00 0.00 77 1008.4
20260506222405 12 180 0.0 0.0 0.00 0.00 0.00 77 1008.2
20260506221906 12 180 0.0 0.0 0.00 0.00 0.00 77 1008.2
20260506221405 12 180 0.0 0.0 0.00 0.00 0.00 77 1008.2
20260506220905 12 180 0.0 0.0 0.00 0.00 0.00 77 1008.2
20260506220405 12 180 0.0 0.0 0.00 0.00 0.00 77 1008.2
20260506215905 12 180 0.0 0.0 0.00 0.00 0.00 77 1008.0
20260506215405 12 180 0.0 0.0 0.00 0.00 0.00 76 1008.0
20260506214905 12 180 0.0 0.0 0.00 0.00 0.00 76 1008.0
20260506214405 12 180 0.0 0.0 0.00 0.00 0.00 76 1008.0
20260506213905 12 180 0.0 0.0 0.00 0.00 0.00 76 1007.9
20260506213405 12 180 0.0 0.0 0.00 0.00 0.00 75 1007.7
20260506212905 12 180 0.0 0.0 0.00 0.00 0.00 75 1007.7
20260506212405 13 315 0.0 0.0 0.00 0.00 0.00 75 1007.7
20260506211905 13 315 0.0 0.0 0.00 0.00 0.00 75 1007.9
20260506211405 13 337 0.0 0.0 0.00 0.00 0.00 76 1007.7
20260506210905 13 337 0.0 0.0 0.00 0.00 0.00 76 1007.7
20260506210405 13 337 0.0 0.0 0.00 0.00 0.00 75 1007.5
20260506205905 13 337 0.0 0.0 0.00 0.00 0.00 75 1007.5
20260506205405 13 337 0.0 0.0 0.00 0.00 0.00 75 1007.5
20260506204905 13 337 0.0 0.0 0.00 0.00 0.00 75 1007.4
20260506204405 13 337 0.0 0.0 0.00 0.00 0.00 75 1007.4
20260506203905 13 337 0.0 0.0 0.00 0.00 0.00 74 1007.2
20260506203405 13 337 0.0 0.0 0.00 0.00 0.00 74 1007.2
20260506202905 13 337 0.0 0.0 0.00 0.00 0.00 74 1007.0
20260506202405 13 337 0.0 0.0 0.00 0.00 0.00 74 1007.2
20260506201905 13 337 0.0 0.0 0.00 0.00 0.00 73 1007.2
20260506201405 13 337 0.0 0.0 0.00 0.00 0.00 73 1007.0
20260506200905 13 337 0.0 0.0 0.00 0.00 0.00 73 1006.9
20260506200405 13 202 0.0 0.0 0.00 0.00 0.00 73 1007.0
20260506195905 14 202 0.0 0.0 0.00 0.00 0.00 73 1006.9
20260506195405 14 202 0.0 0.0 0.00 0.00 0.00 72 1006.9
20260506194905 14 202 0.0 0.0 0.00 0.00 0.00 72 1006.7
20260506194405 14 202 0.0 0.0 0.00 0.00 0.00 71 1006.7
20260506193905 14 202 0.0 0.0 0.00 0.00 0.00 70 1006.7
20260506193405 15 225 0.0 0.0 0.00 0.00 0.00 69 1006.5
20260506192905 15 180 0.0 0.0 0.00 0.00 0.00 69 1006.4
20260506192405 15 180 0.0 0.0 0.00 0.00 0.00 66 1006.4
20260506191905 15 157 0.0 0.0 0.00 0.00 0.00 66 1006.2
20260506191405 15 202 0.0 0.0 0.00 0.00 0.00 66 1005.9
20260506190905 15 202 0.0 0.0 0.00 0.00 0.00 65 1006.0
20260506190405 15 202 0.0 0.0 0.00 0.00 0.00 65 1006.0
20260506185905 15 202 0.0 0.0 0.00 0.00 0.00 64 1006.0
20260506185405 15 202 0.0 0.0 0.00 0.00 0.00 64 1005.7
20260506184905 15 202 0.0 0.0 0.00 0.00 0.00 64 1005.7
20260506184405 15 202 0.0 0.0 0.00 0.00 0.00 64 1005.7
20260506183905 15 180 0.0 0.0 0.00 0.00 0.00 63 1005.5
20260506183405 15 180 0.0 0.0 0.00 0.00 0.00 63 1005.4
20260506182905 16 202 0.0 0.0 0.00 0.00 0.00 63 1005.5
20260506182405 16 202 0.0 0.0 0.00 0.00 0.00 63 1005.5
20260506181905 16 225 0.0 0.0 0.00 0.00 0.00 63 1005.5
20260506181405 16 225 0.0 0.0 0.00 0.00 0.00 62 1005.4
20260506180905 16 225 0.0 0.0 0.00 0.00 0.00 62 1005.4
20260506180405 16 225 0.0 0.0 0.00 0.00 0.00 62 1005.4
20260506175905 16 225 0.0 0.0 0.00 0.00 0.00 61 1005.4
20260506175405 16 202 0.0 0.0 0.00 0.00 0.00 61 1005.2
20260506174905 16 225 0.0 0.0 0.00 0.00 0.00 60 1005.2
20260506174405 16 225 0.0 0.0 0.00 0.00 0.00 60 1005.2
20260506173905 16 180 0.0 0.0 0.00 0.00 0.00 60 1005.0
20260506173405 16 202 0.0 0.0 0.00 0.00 0.00 59 1005.0
20260506172905 17 180 0.0 0.0 0.00 0.00 0.00 59 1004.9
20260506172405 17 202 0.0 0.0 0.00 0.00 0.00 59 1004.7
20260506171905 17 225 0.0 0.0 0.00 0.00 0.00 58 1004.9
20260506171405 17 180 0.0 0.0 0.00 0.00 0.00 58 1004.7
20260506170905 17 180 4.8 0.0 0.00 0.00 0.00 57 1004.7
20260506170405 17 180 0.0 0.0 0.00 0.00 0.00 57 1004.7
20260506165905 17 180 0.0 0.0 0.00 0.00 0.00 57 1004.7
20260506165405 17 180 0.0 0.0 0.00 0.00 0.00 57 1004.7
20260506164905 17 270 0.0 0.0 0.00 0.00 0.00 57 1004.7
20260506164405 17 225 0.0 0.0 0.00 0.00 0.00 57 1004.7
20260506163905 17 135 9.7 0.0 0.00 0.00 0.00 56 1004.7
20260506163405 17 202 0.0 0.0 0.00 0.00 0.00 56 1004.7
20260506162905 18 247 0.0 0.0 0.00 0.00 0.00 56 1004.7
20260506162405 18 270 0.0 0.0 0.00 0.00 0.00 55 1004.7
20260506161905 18 180 0.0 0.0 0.00 0.00 0.00 55 1004.7
20260506161405 18 202 0.0 0.0 0.00 0.00 0.00 55 1004.7
20260506160905 18 225 0.0 0.0 0.00 0.00 0.00 54 1004.7
20260506160405 18 270 0.0 0.0 0.00 0.00 0.00 53 1004.7
20260506155905 18 202 0.0 0.0 0.00 0.00 0.00 53 1004.7
20260506155405 19 180 0.0 0.0 0.00 0.00 0.00 52 1004.7
20260506154905 19 180 4.8 0.0 0.00 0.00 0.00 52 1004.7
20260506154405 19 225 0.0 0.0 0.00 0.00 0.00 52 1004.7
20260506153905 20 202 0.0 0.0 0.00 0.00 0.00 51 1004.5
20260506153405 20 180 0.0 0.0 0.00 0.00 0.00 51 1004.5
20260506152905 20 202 0.0 0.0 0.00 0.00 0.00 50 1004.5
20260506152405 20 225 4.8 0.0 0.00 0.00 0.00 50 1004.5
20260506151905 20 202 0.0 0.0 0.00 0.00 0.00 50 1004.5
20260506151405 20 225 4.8 0.0 0.00 0.00 0.00 50 1004.5
20260506150905 21 202 8.0 0.0 0.00 0.00 0.00 49 1004.5
20260506150405 21 225 0.0 0.0 0.00 0.00 0.00 49 1004.4
20260506145905 21 225 0.0 0.0 0.00 0.00 0.00 49 1004.4
20260506145405 21 225 0.0 0.0 0.00 0.00 0.00 49 1004.4
20260506144905 21 247 9.7 0.0 0.00 0.00 0.00 50 1004.2
20260506144405 21 225 0.0 0.0 0.00 0.00 0.00 49 1004.2
20260506143905 21 180 11.3 0.0 0.00 0.00 0.00 49 1004.4
20260506143405 21 157 0.0 0.0 0.00 0.00 0.00 49 1004.4
20260506142905 21 180 0.0 0.0 0.00 0.00 0.00 49 1004.2
20260506142405 21 202 0.0 0.0 0.00 0.00 0.00 49 1004.2
20260506141905 21 180 0.0 0.0 0.00 0.00 0.00 50 1004.2
20260506141405 21 225 0.0 0.0 0.00 0.00 0.00 51 1004.4
20260506140905 21 202 0.0 0.0 0.00 0.00 0.00 51 1004.4
20260506140405 20 270 0.0 0.0 0.00 0.00 0.00 52 1004.2
20260506135905 21 225 0.0 0.0 0.00 0.00 0.00 52 1004.2
20260506135405 20 180 0.0 0.0 0.00 0.00 0.00 52 1004.4
20260506134905 20 225 0.0 0.0 0.00 0.00 0.00 52 1004.2
20260506134405 20 225 0.0 0.0 0.00 0.00 0.00 54 1004.2
20260506133905 20 180 0.0 0.0 0.00 0.00 0.00 54 1004.4
20260506133405 20 180 0.0 0.0 0.00 0.00 0.00 54 1004.5
20260506132905 20 247 0.0 0.0 0.00 0.00 0.00 55 1004.4
20260506132405 19 180 6.4 0.0 0.00 0.00 0.00 55 1004.2
20260506131905 19 225 9.7 0.0 0.00 0.00 0.00 55 1004.2
20260506131405 19 180 0.0 0.0 0.00 0.00 0.00 56 1004.5
20260506130905 18 180 0.0 0.0 0.00 0.00 0.00 56 1004.5
20260506130405 18 225 8.0 0.0 0.00 0.00 0.00 57 1004.7
20260506125905 18 225 0.0 0.0 0.00 0.00 0.00 57 1004.7
20260506125405 18 180 0.0 0.0 0.00 0.00 0.00 57 1004.5
20260506124905 18 247 0.0 0.0 0.00 0.00 0.00 58 1004.5
20260506124405 18 225 4.8 0.0 0.00 0.00 0.00 58 1004.7
20260506123905 18 225 0.0 0.0 0.00 0.00 0.00 59 1004.5
20260506123405 18 247 0.0 0.0 0.00 0.00 0.00 58 1004.7
20260506122905 18 247 8.0 0.0 0.00 0.00 0.00 58 1004.7